Lacrosse 4 Rocket - Orbit

View from above orbital plane
View from above orbital plane
View from above satellite
View from above satellite

Ground track
Ground track

The orbit data is extracted from the following two-line orbital elements,

1 26474U 00047B   13137.83444026  .00001988  00000-0  20402-3 0  3047
2 26474 067.9971 344.0863 0061336 162.2551 198.0751 14.91247327692630
Epoch (UTC): 17 May 2013 20:01:35
Eccentricity: 0.0061336
inclination: 67.9971°
perigee height: 551 km
apogee height: 637 km
right ascension of ascending node: 344.0863°
argument of perigee: 162.2551°
revolutions per day: 14.91247327
mean anomaly at epoch: 198.0751°
orbit number at epoch: 69263

The dashed part of the orbit path shows where the satellite is in the earth's shadow,  

Developed and maintained by Chris Peat, Heavens-Above GmbH. Please read the updated FAQ before sending e-mail. Imprint. DLR